Theta_e
317 320 322 324 332 330 337 336 325 332 335 334 337 332 326 329 329 328 331 329 328 328 330 334 337 338 341 341 343 346 344 350 353 348 349 350 341 345 350 343 346 347 349 351 346 346 344 338 333 332 330 326 319 317 320 321 323 326 326 327 324 321 320 320 320 322 326 330 335 337 338 339 339 341 340 341 339 338 337 336 337 337 338 338 336 335 334 332 333 334 333 331 331 331 330 330 330
316 323 326 327 333 327 333 334 328 335 330 328 331 331 329 329 328 326 329 328 328 326 331 336 338 339 339 343 342 342 342 343 346 347 349 345 344 348 347 343 345 347 350 350 346 346 345 340 334 332 329 326 318 315 320 320 324 327 325 326 324 322 321 322 326 329 334 337 338 338 338 338 340 341 341 341 340 340 339 337 338 338 338 337 334 334 334 334 333 333 332 332 333 333 332 330 328
315 324 329 330 334 329 334 331 329 332 324 325 327 331 329 324 327 327 327 327 328 327 331 334 334 336 337 343 340 340 348 347 343 348 350 345 348 348 345 345 342 346 350 349 348 346 345 339 334 332 328 325 317 314 319 320 324 326 324 323 322 321 321 325 331 334 336 338 338 339 339 338 340 341 341 341 339 338 338 336 337 338 338 336 335 335 335 335 334 333 334 334 335 336 335 333 331
315 325 330 332 335 335 339 333 335 333 322 327 325 328 332 327 328 326 325 326 328 327 327 329 331 333 336 345 342 340 350 350 342 348 353 346 347 348 345 346 342 346 350 348 347 345 344 339 334 331 327 324 317 314 318 320 322 323 322 321 321 320 320 322 327 329 333 336 338 339 339 339 339 338 337 337 336 333 332 333 334 336 338 336 336 335 335 336 335 335 336 336 336 336 336 335 334
316 324 329 330 333 336 337 331 333 327 320 329 325 326 333 330 327 323 323 323 325 325 323 327 335 335 334 341 342 348 356 349 339 339 344 343 344 346 346 346 345 347 349 348 346 345 345 342 336 331 325 323 319 313 316 320 319 320 320 320 321 321 320 320 320 321 327 332 335 338 338 338 335 333 334 336 336 333 331 331 330 330 333 336 337 335 335 337 335 336 337 336 337 336 336 336 335
316 321 327 326 326 329 332 331 330 326 324 327 326 329 329 325 325 324 323 322 324 327 324 326 336 335 337 339 339 348 350 344 340 339 339 341 342 345 347 346 346 348 349 348 347 346 346 344 337 330 326 324 320 313 314 318 319 319 318 320 321 321 321 320 318 318 322 327 330 333 334 334 333 333 335 337 338 337 337 336 335 330 326 329 334 335 335 337 336 336 336 336 336 336 336 336 336
317 320 325 331 329 327 335 339 335 333 329 323 325 329 326 325 324 324 324 323 324 327 327 329 334 334 339 339 339 342 337 340 342 343 342 339 341 345 348 345 346 348 348 349 349 347 346 345 337 331 328 325 320 314 314 316 319 319 318 319 319 321 322 321 319 317 321 325 328 330 330 331 333 335 336 337 338 338 339 339 340 338 331 323 324 329 331 334 336 335 335 335 335 335 334 333 332
316 318 323 335 333 328 335 336 334 334 329 322 324 326 326 327 324 324 324 322 322 324 325 327 329 333 339 337 345 345 334 342 342 342 344 339 340 345 347 345 346 348 348 350 349 348 346 345 339 332 329 325 321 315 314 315 318 319 318 318 318 320 322 322 320 318 322 326 328 330 330 332 335 335 335 336 337 339 339 340 340 340 338 330 322 321 322 328 332 334 335 334 332 330 329 328 328
314 316 319 328 328 325 330 329 328 328 327 325 323 325 327 326 323 322 322 322 321 321 322 324 326 332 341 340 348 347 338 345 344 345 346 340 341 346 348 347 348 349 349 350 350 349 346 346 341 334 329 326 322 317 314 314 317 318 318 318 318 320 321 324 322 321 323 325 329 332 334 336 337 336 335 336 337 339 339 340 340 339 340 338 332 325 322 324 327 331 331 329 326 325 324 326 329
315 317 318 324 324 323 326 325 327 324 324 324 321 323 324 322 321 320 320 321 319 320 320 322 328 331 338 345 350 344 342 348 347 348 347 344 346 347 348 347 349 350 350 350 350 349 346 346 343 337 330 328 324 320 315 313 316 317 318 318 318 319 321 324 324 324 324 327 331 334 337 338 338 337 336 337 338 339 339 339 339 339 340 339 338 334 329 326 327 329 326 323 322 325 327 329 331
320 320 319 325 325 323 325 326 329 327 324 321 320 322 321 319 319 319 319 318 317 317 316 320 330 334 334 345 353 342 342 349 347 348 347 346 347 347 347 346 348 349 349 348 348 350 347 346 345 340 333 329 326 322 319 314 315 317 317 318 318 319 320 322 325 326 326 328 331 334 337 338 339 338 338 338 338 339 339 339 339 339 339 339 340 338 335 329 327 328 325 324 326 328 329 330 332
319 321 325 329 328 324 324 325 327 329 326 322 322 321 320 318 318 318 317 316 314 313 314 317 327 335 336 346 352 340 339 345 344 346 347 347 347 346 346 346 347 347 347 344 346 350 349 347 346 343 337 332 328 325 322 318 315 316 318 318 318 318 319 321 324 326 327 328 330 333 337 338 338 338 339 338 339 339 339 339 339 339 339 339 340 340 339 333 330 328 327 328 330 330 330 331 332
320 325 328 324 323 324 322 322 325 326 327 324 321 320 319 317 317 316 315 314 312 313 314 316 324 330 336 348 350 342 341 342 343 345 346 345 345 346 345 346 346 347 346 342 346 348 348 347 347 345 340 334 330 327 324 321 317 316 318 319 319 319 319 320 323 326 328 329 329 331 335 337 337 337 339 339 339 339 340 339 339 339 339 339 339 339 339 337 334 331 329 329 331 331 331 331 331
320 323 326 320 318 321 319 318 320 319 320 323 319 316 317 317 317 314 312 312 312 315 314 319 328 330 335 346 351 347 343 342 344 345 344 344 344 345 345 346 345 346 345 342 345 346 346 347 347 346 343 338 332 330 327 324 320 317 318 319 319 319 319 320 321 324 328 329 329 330 333 335 336 338 338 339 340 340 340 340 339 340 339 339 339 338 337 337 336 334 333 331 332 331 331 331 331
315 320 326 320 315 317 316 316 316 315 316 319 317 312 313 316 314 312 312 312 312 314 314 322 331 333 337 343 348 345 342 343 345 344 343 343 343 344 344 344 344 344 343 342 343 344 344 345 346 346 346 342 336 333 331 328 325 322 319 318 319 319 320 320 320 322 324 328 330 330 331 332 335 338 339 339 340 340 340 340 339 340 339 339 339 338 337 335 335 335 335 333 334 333 332 332 332
313 318 321 318 315 315 315 316 315 314 316 317 315 310 311 313 312 312 312 312 310 312 319 326 328 330 338 342 342 340 342 345 343 343 343 341 342 343 344 344 344 344 343 343 343 342 342 343 345 347 347 345 341 337 335 332 328 326 323 319 318 318 319 320 320 321 323 327 330 332 333 332 333 336 337 338 340 340 340 340 339 339 339 339 339 338 337 335 334 334 334 334 334 335 334 333 333
311 316 318 315 314 314 315 316 314 315 317 317 315 310 310 312 312 311 311 311 309 310 319 327 330 333 339 341 341 341 344 345 342 343 341 340 339 340 342 344 344 345 345 345 344 342 342 342 344 347 348 346 345 342 338 335 331 329 327 323 320 319 318 319 320 321 324 329 332 334 334 331 328 329 332 335 338 339 339 340 339 339 338 338 338 338 337 335 334 334 333 334 333 335 335 334 333
310 314 314 313 313 314 316 316 315 315 315 314 313 310 310 311 311 311 311 311 310 311 314 325 336 337 337 338 338 342 344 343 343 342 341 340 338 339 341 342 344 345 346 346 345 344 342 342 344 347 348 347 346 345 341 339 336 333 329 327 325 322 321 320 322 321 323 328 331 334 333 330 325 324 326 330 333 336 337 337 338 338 337 337 337 335 334 333 332 333 333 333 333 333 334 334 334
313 314 312 313 314 312 313 315 314 313 312 313 313 311 309 310 310 310 310 311 312 312 310 324 341 340 338 338 336 339 341 342 342 340 341 341 340 339 340 340 341 342 342 342 342 344 343 342 345 347 348 348 346 346 345 341 339 337 332 329 328 326 325 323 323 322 322 324 326 328 329 329 327 326 325 325 329 333 335 335 335 334 332 332 332 330 329 328 327 329 331 332 333 333 333 333 334
312 312 311 313 313 311 311 312 312 313 313 313 312 309 309 310 310 310 309 311 311 312 310 317 336 342 341 339 335 337 339 339 340 339 339 339 341 340 340 341 340 341 341 340 340 341 344 345 345 346 348 348 347 346 346 344 341 340 336 332 331 330 328 326 324 324 323 323 322 323 324 327 329 330 329 329 330 330 330 333 334 333 330 326 325 324 325 325 324 325 327 329 331 333 333 332 333
308 309 312 313 310 310 311 311 313 313 312 311 310 308 308 309 309 310 310 309 312 312 312 312 327 342 344 341 337 335 335 336 336 338 340 340 341 341 340 340 340 340 340 342 341 340 344 346 344 342 345 348 346 346 345 345 343 342 339 335 333 332 330 328 327 326 324 324 324 323 323 324 327 331 333 333 334 330 326 331 333 332 332 326 323 323 324 325 324 323 324 326 328 331 333 333 333
308 309 311 310 308 309 310 312 313 311 309 309 309 308 309 309 308 311 310 309 312 312 312 317 330 343 343 341 337 334 336 339 335 335 339 340 340 341 340 339 339 339 339 341 340 341 343 343 341 339 343 347 346 346 345 345 345 343 341 338 336 334 332 330 329 329 326 325 325 324 324 325 327 330 334 334 335 334 329 329 331 330 331 326 323 324 323 323 322 320 321 323 325 328 331 332 332
309 310 309 309 308 309 310 311 312 310 309 309 310 308 308 308 309 310 310 310 312 314 311 314 331 338 337 338 338 338 341 342 336 331 334 336 337 338 338 337 338 338 338 339 336 340 342 341 342 341 343 345 345 345 345 345 344 344 343 341 339 336 334 332 331 331 329 328 326 325 325 325 326 328 332 333 333 333 331 328 327 328 330 326 322 322 321 320 319 318 318 319 322 325 327 330 331
308 309 309 309 308 308 309 308 309 309 309 310 309 307 308 308 309 307 309 312 311 312 308 313 330 334 334 338 340 341 339 337 333 331 332 333 334 335 336 336 336 335 336 337 337 339 339 339 342 342 343 345 345 345 344 344 343 344 344 343 341 340 338 335 334 333 332 330 328 327 325 325 326 326 328 330 329 329 329 328 326 326 328 327 322 320 320 319 319 319 318 318 319 321 323 325 328
307 309 309 308 308 309 310 307 308 308 308 308 306 307 309 308 307 307 309 311 311 310 311 323 334 334 337 339 339 341 340 337 332 331 331 331 334 335 336 335 334 333 333 334 335 335 335 336 339 341 343 344 344 344 343 343 342 342 343 343 342 341 340 339 337 336 335 333 331 329 328 327 326 326 327 327 327 326 327 327 327 325 324 325 324 322 321 320 319 319 318 317 317 318 319 320 323
307 308 308 308 307 309 309 308 309 308 308 307 306 308 309 306 306 308 311 312 313 312 315 328 332 336 338 336 337 341 345 340 331 330 331 332 333 333 334 334 332 331 331 333 334 333 333 334 337 339 341 343 344 343 343 342 341 341 342 342 342 342 342 341 340 338 337 336 335 334 332 331 329 329 329 328 328 327 326 327 327 324 323 323 324 323 322 322 320 319 318 316 316 317 317 317 318
307 307 307 307 307 307 308 308 309 307 307 307 307 309 308 306 306 309 315 318 315 314 321 328 332 337 335 333 336 340 344 337 331 333 333 332 332 330 331 331 329 329 331 332 332 332 333 334 335 336 336 338 340 340 341 341 341 342 342 341 341 341 341 341 341 340 339 338 338 338 336 335 333 332 332 332 331 330 329 329 328 326 325 323 321 321 321 322 322 321 319 317 316 316 317 317 316
307 307 307 309 308 308 307 307 308 306 306 307 307 308 308 307 307 308 311 316 317 319 321 323 327 330 331 335 336 335 336 331 330 334 333 331 331 329 329 329 328 330 331 331 331 332 332 333 334 334 334 336 336 336 338 340 340 341 341 341 341 341 341 341 341 340 339 339 339 338 338 337 336 335 334 335 334 333 333 333 332 330 327 324 322 319 318 320 323 323 321 320 318 317 318 318 317
308 307 309 312 311 311 308 307 307 306 307 308 307 309 310 309 307 306 309 313 319 322 321 321 324 326 329 335 334 331 331 328 329 330 329 329 329 329 330 331 332 332 332 333 334 332 330 332 333 333 335 338 337 337 339 340 340 340 341 341 342 341 341 342 341 341 340 339 339 339 338 338 337 337 336 336 336 336 336 336 335 334 330 326 324 322 319 318 321 324 324 323 321 319 319 319 319
308 307 309 312 312 313 309 308 310 307 307 307 307 310 311 310 306 307 313 315 316 320 321 323 327 328 330 332 331 329 328 330 331 328 327 329 329 331 332 333 334 334 333 333 334 333 332 334 335 334 337 339 340 339 340 340 340 340 339 340 340 339 339 338 338 339 339 339 339 339 338 338 338 337 337 337 337 337 337 337 336 336 333 329 326 324 323 320 322 324 325 324 323 321 319 319 320
310 308 311 311 310 314 312 312 314 308 306 307 307 310 311 309 306 308 315 316 315 320 324 326 328 328 329 329 328 327 326 328 330 328 329 330 330 330 330 330 329 329 332 334 334 335 336 337 337 337 338 339 339 339 340 340 340 340 339 339 338 337 337 335 335 336 337 337 338 339 338 339 339 338 338 337 337 337 337 337 337 336 335 332 329 326 324 324 325 326 327 328 327 324 321 319 320
312 310 315 314 310 314 316 314 314 308 307 308 307 310 311 309 307 309 313 316 318 323 326 326 327 327 328 328 325 325 325 323 325 327 329 328 327 327 326 326 325 325 330 333 334 335 336 336 337 337 337 338 338 338 339 339 340 340 340 340 339 338 337 336 336 337 338 337 337 338 338 339 339 338 338 338 338 338 337 337 337 336 335 334 332 330 328 328 328 328 329 331 331 328 325 322 321
318 314 314 315 313 313 315 312 311 309 307 308 307 310 311 308 309 311 312 318 323 326 327 324 325 326 327 327 325 324 324 323 322 323 324 324 325 325 325 325 325 325 327 329 329 330 333 334 334 335 336 337 337 337 338 338 338 339 339 339 339 339 337 337 337 338 338 338 337 336 336 338 339 339 338 338 338 338 338 337 336 336 334 334 333 332 332 331 331 332 332 333 334 332 331 330 328
324 320 316 315 314 312 313 313 311 309 307 307 308 309 309 308 312 314 314 319 324 326 325 324 325 326 326 326 325 323 323 323 323 320 321 322 322 323 323 322 321 321 322 323 324 325 327 327 327 328 330 331 332 334 334 335 336 337 337 338 338 338 337 337 336 337 337 337 336 335 335 336 337 338 337 337 336 337 338 337 336 335 334 333 332 332 332 332 333 334 334 334 335 335 334 334 333
319 320 318 316 315 312 313 315 313 310 309 309 308 309 309 308 313 316 315 318 322 323 323 323 325 325 325 325 324 323 322 323 322 319 319 319 320 319 319 318 318 319 319 320 320 320 320 320 321 321 321 323 324 326 327 330 332 333 334 335 335 335 335 336 335 335 335 335 335 335 335 336 336 336 336 336 335 336 337 337 336 335 334 332 331 332 333 333 334 336 336 335 336 335 335 335 334
314 316 317 315 314 313 313 315 313 309 309 310 309 309 310 310 313 316 316 317 320 322 323 323 324 324 325 325 324 323 323 323 319 317 317 317 317 317 317 317 317 317 317 317 317 318 317 316 317 317 316 317 318 319 320 322 325 328 330 331 332 332 333 334 335 335 335 335 335 335 335 336 336 336 336 336 335 335 336 335 335 334 333 333 332 332 333 333 334 335 336 336 336 336 335 335 335
311 313 314 314 313 313 314 314 313 309 309 312 311 311 310 310 314 315 315 318 320 322 324 323 324 324 324 324 324 323 322 321 317 315 315 315 315 316 316 316 317 316 315 315 314 314 314 314 314 313 313 315 316 316 317 318 319 322 326 329 330 330 332 332 333 334 335 334 335 335 335 335 335 336 336 336 335 335 334 334 334 333 333 333 333 333 333 332 333 334 335 336 336 336 336 335 335
309 311 312 313 313 314 314 313 314 312 311 316 316 314 312 312 315 314 314 319 320 322 323 323 324 324 324 323 323 322 320 318 316 315 313 314 315 315 315 315 315 314 312 312 313 312 313 313 313 312 312 313 313 313 314 315 316 319 322 326 328 329 330 331 332 332 332 333 334 334 335 335 335 335 336 336 336 336 335 335 334 334 334 334 334 334 333 333 333 334 335 335 336 335 335 336 335
311 312 313 316 315 314 315 315 318 316 313 318 318 313 313 314 316 314 315 319 319 320 321 322 323 323 323 323 321 320 319 318 318 316 313 312 313 313 313 313 312 312 311 311 311 311 312 311 311 311 312 312 311 311 312 312 313 314 317 320 325 327 329 330 331 330 330 331 332 334 334 334 335 335 336 336 336 336 336 336 336 335 335 335 335 334 334 334 333 335 335 335 335 334 334 335 334
314 315 315 319 318 315 318 319 319 317 313 316 317 317 316 316 317 315 316 319 319 320 321 321 322 322 321 321 319 319 319 319 318 316 314 311 311 312 311 311 311 311 310 309 309 309 309 309 310 310 310 310 310 310 310 310 311 312 314 316 319 323 326 327 327 327 328 329 330 332 333 334 334 335 336 336 336 337 337 336 336 336 336 336 336 335 335 335 334 335 335 335 335 334 333 333 334
319 318 316 321 320 317 318 317 318 320 317 315 318 326 325 317 317 317 317 319 318 318 319 320 321 320 319 320 319 318 319 317 317 318 315 312 311 311 310 310 310 309 308 307 307 307 307 307 307 307 308 308 308 308 308 309 310 312 313 314 315 317 318 320 322 323 324 325 327 328 330 331 333 333 334 335 336 336 336 336 336 336 336 337 336 336 336 336 336 336 336 336 335 334 334 333 334
322 319 318 321 321 318 316 317 324 328 324 317 314 322 328 322 318 317 317 318 318 317 318 319 320 319 319 321 320 318 317 316 316 317 315 312 310 310 310 309 308 307 307 307 307 306 306 306 306 306 306 306 306 306 306 307 308 309 309 310 312 313 313 314 316 317 316 318 322 325 328 330 331 332 333 334 335 335 336 336 336 336 336 336 337 337 337 336 336 336 336 336 336 335 335 334 334
322 320 318 319 319 317 316 318 322 325 322 317 313 319 328 325 318 316 317 318 318 317 317 318 318 319 320 320 319 318 317 317 317 315 314 312 311 310 309 308 308 307 307 307 306 305 305 305 305 305 305 305 305 305 306 306 307 307 307 307 308 310 311 311 311 311 312 313 316 320 324 328 330 332 333 333 334 334 335 335 336 336 336 336 336 336 337 337 337 336 336 336 336 335 334 333 334
323 319 318 319 317 317 319 318 319 322 321 321 323 322 321 322 320 318 318 318 318 318 318 318 318 319 320 319 318 316 316 317 317 317 316 312 310 309 309 308 307 307 307 306 305 305 305 305 305 305 305 305 305 305 305 306 307 307 307 307 307 307 308 308 308 309 310 311 312 314 318 323 327 329 332 332 333 334 334 334 335 336 336 336 336 336 336 337 336 337 337 336 337 336 334 334 334
322 318 316 318 318 317 319 320 323 323 319 325 332 321 316 328 328 318 317 318 319 319 318 318 318 318 318 318 317 316 316 316 316 317 316 311 309 309 309 308 307 307 306 305 305 305 305 305 305 305 305 305 305 305 305 305 306 307 307 307 307 307 307 307 307 307 309 310 311 313 314 317 322 326 328 330 331 333 333 334 334 335 335 336 336 336 336 336 336 336 337 336 336 336 335 335 335
316 315 319 321 322 324 323 326 328 323 320 327 333 321 316 330 329 317 316 319 318 318 318 317 318 318 317 317 317 316 315 315 314 314 311 309 310 309 309 308 307 306 306 305 306 306 306 306 306 305 306 305 305 305 305 305 305 306 307 307 307 307 307 306 306 307 308 308 310 312 312 313 317 321 325 328 329 331 332 333 334 334 335 335 336 336 336 336 337 336 337 336 336 336 336 336 335
312 316 321 320 325 330 329 331 328 322 325 330 328 320 317 325 328 319 317 321 319 317 317 318 318 317 316 316 316 315 315 314 314 314 310 309 310 309 308 308 307 306 306 306 306 306 306 306 306 306 306 306 305 305 305 305 305 306 307 307 306 306 306 306 306 306 307 308 308 310 311 312 314 316 320 324 328 330 332 333 334 334 334 334 335 336 336 337 337 337 337 336 336 336 336 336 335
316 323 323 320 325 328 328 331 327 323 330 330 323 321 317 321 329 323 316 319 320 317 316 317 318 316 315 315 315 315 315 314 314 315 313 310 309 309 308 307 307 306 306 306 306 306 306 306 306 306 306 306 305 305 305 305 305 306 306 307 306 306 306 305 305 305 306 307 308 309 309 311 312 313 315 320 325 329 331 332 333 334 334 334 334 334 335 336 337 337 337 336 337 336 336 336 335
319 325 328 324 324 324 326 329 325 325 328 322 319 321 318 321 330 325 318 318 320 318 315 316 316 315 315 314 314 314 314 314 314 315 315 312 309 308 308 308 307 306 306 306 307 306 305 305 306 306 306 305 305 305 305 305 305 305 306 306 306 306 306 305 305 305 306 307 308 309 309 309 310 311 313 317 321 325 329 332 333 333 333 333 334 333 334 335 336 336 336 336 336 336 336 336 335
318 323 329 327 325 325 328 327 320 322 324 317 316 320 321 324 323 320 320 320 320 318 315 316 315 314 315 314 313 314 313 314 314 314 316 314 309 307 308 308 306 306 306 307 307 306 305 305 306 306 306 305 305 305 305 305 305 305 306 306 306 306 306 305 305 305 306 307 307 308 308 308 308 311 314 316 317 319 323 327 330 332 333 333 333 333 333 334 334 335 335 335 336 336 336 336 336
319 321 322 323 328 328 327 326 324 325 325 319 316 318 325 328 319 317 320 320 319 316 313 316 315 313 314 312 312 313 312 313 313 312 314 311 307 307 308 307 307 306 306 307 307 306 305 306 306 306 306 305 305 305 305 305 305 305 305 306 306 306 306 305 305 305 305 306 306 307 307 308 308 311 314 314 314 315 317 321 325 329 331 332 333 333 333 334 334 335 335 335 335 335 335 336 336
316 314 317 320 326 327 321 320 324 324 323 322 319 319 327 326 317 319 323 320 317 315 313 315 315 313 313 312 312 313 312 313 311 311 313 310 307 307 308 307 307 306 306 307 307 306 306 306 306 306 306 305 305 305 305 305 305 305 305 306 306 306 306 305 305 305 304 305 305 306 307 307 308 309 310 310 311 312 314 317 322 325 328 331 332 333 333 334 334 335 335 335 335 335 335 336 336
316 314 321 320 318 326 323 316 317 319 320 323 320 320 327 323 317 322 324 320 316 314 313 314 314 313 313 313 313 313 312 313 312 311 313 311 307 307 308 308 307 306 306 307 307 306 306 306 306 306 306 305 305 305 305 305 305 305 305 306 306 306 305 305 305 304 304 304 305 306 306 306 306 306 307 307 309 311 312 314 317 321 325 329 331 332 333 333 334 334 335 335 335 335 335 336 336
319 319 324 318 313 324 325 319 321 321 321 325 321 321 327 324 323 325 321 318 319 316 314 313 313 313 313 313 313 312 312 312 312 312 312 309 307 307 308 307 307 307 306 307 306 306 306 306 306 306 306 305 305 305 305 305 305 305 305 305 306 305 305 305 304 304 304 304 305 305 305 305 305 306 306 307 308 309 311 312 314 318 323 326 329 331 332 333 333 333 334 334 334 335 334 335 335
318 321 320 317 319 326 322 319 325 322 320 325 323 320 322 323 329 329 321 320 322 319 316 314 313 313 312 312 312 312 312 312 312 313 312 309 306 307 308 308 307 307 306 307 306 305 306 306 306 306 305 305 305 305 305 305 305 305 305 305 305 305 305 304 304 304 304 304 304 305 305 305 305 306 306 307 308 309 310 311 313 316 320 324 327 329 331 333 333 333 334 334 334 334 335 335 335
316 318 317 319 325 327 322 319 324 322 320 324 324 320 323 327 330 330 325 322 322 321 319 315 312 312 311 312 312 312 312 313 312 312 312 310 306 306 307 307 307 306 306 307 306 306 306 306 306 306 305 305 305 305 305 305 305 305 305 305 305 305 305 304 304 304 304 304 305 305 305 305 305 306 306 306 307 308 309 310 311 314 318 323 326 327 329 332 333 333 333 334 334 334 334 335 335
317 320 320 321 320 319 320 319 321 323 323 324 324 323 329 330 325 326 327 322 319 320 319 315 312 312 311 311 312 312 312 312 311 311 312 309 306 306 307 307 307 306 307 307 306 306 307 306 306 305 305 305 305 305 305 305 305 305 305 305 305 305 305 304 303 303 303 304 305 305 306 306 306 306 306 306 306 307 308 309 311 313 317 321 325 327 328 331 332 333 333 333 334 334 334 335 335
321 324 323 325 323 321 323 322 319 321 321 323 323 322 329 330 322 324 326 321 317 317 317 316 313 312 312 312 313 312 312 312 311 311 312 308 305 305 306 306 306 306 307 306 306 306 306 306 306 305 305 305 305 305 305 305 305 305 305 305 305 305 305 304 303 303 303 304 305 305 306 306 306 306 307 306 307 308 309 310 312 314 316 320 324 327 328 330 331 333 333 333 334 334 334 334 334
Wind_Speed
5 4 4 5 2 2 3 3 2 3 2 1 1 1 3 3 0 1 5 6 3 2 1 4 4 4 3 2 4 5 4 6 5 4 4 5 7 15 27 16 22 33 31 30 30 29 29 30 31 30 29 28 27 27 27 26 26 24 24 23 25 26 27 28 27 27 26 24 23 23 23 23 23 24 23 21 19 18 18 17 17 16 15 14 14 14 14 16 17 18 19 19 19 18 18 16 14
4 4 5 5 2 2 1 3 2 3 3 1 2 2 3 3 3 1 4 4 3 4 3 3 2 1 1 1 3 3 3 5 5 4 3 2 3 18 24 16 26 33 31 31 30 29 28 29 30 31 29 28 28 28 28 26 25 25 25 24 24 25 26 27 26 26 25 24 24 23 22 22 23 24 22 21 19 17 17 17 16 15 13 13 14 15 16 17 18 19 19 19 18 18 18 18 17
2 4 5 5 2 2 1 3 2 1 3 1 4 3 2 3 3 5 5 6 7 6 5 4 3 2 1 1 2 2 4 4 4 3 1 4 7 17 24 17 27 33 31 31 30 29 29 29 29 30 30 29 28 28 29 27 25 25 25 25 25 25 26 26 25 26 25 25 24 24 22 21 23 23 22 20 18 17 17 16 15 14 12 13 15 15 16 17 19 20 19 17 16 15 15 16 17
3 5 4 4 1 3 3 3 2 4 2 3 3 4 3 2 5 6 5 7 7 6 5 3 3 2 3 4 3 1 5 4 3 4 2 8 9 19 27 19 28 34 32 33 31 31 31 31 30 30 29 29 29 28 29 28 27 26 26 26 25 26 26 26 26 27 26 25 25 24 23 22 22 22 22 20 18 17 17 17 16 15 13 14 15 15 16 16 18 19 17 16 15 14 14 14 15
3 5 3 2 2 1 3 2 2 4 3 3 1 5 4 5 6 7 6 6 6 7 7 2 2 3 2 4 3 1 5 2 2 4 4 11 11 21 28 21 30 34 33 34 32 33 32 31 31 31 29 30 31 30 30 29 28 27 27 26 26 25 25 26 26 27 26 25 25 24 23 23 23 22 22 20 18 18 18 17 17 16 15 15 15 15 16 16 17 17 16 16 15 14 13 13 12
4 6 3 3 2 1 2 1 2 2 4 4 2 5 5 5 6 8 9 6 6 7 6 3 2 2 1 3 2 3 4 1 0 4 6 12 13 22 27 24 31 34 34 34 32 33 32 31 32 32 31 32 33 33 32 31 29 28 28 27 26 25 25 25 25 26 25 25 25 25 24 23 23 22 21 19 19 18 17 16 16 16 15 16 15 15 15 15 15 15 15 15 14 14 13 12 11
4 4 2 4 1 1 3 2 3 2 3 4 4 4 6 7 6 6 9 7 4 4 3 3 1 1 3 3 2 4 4 3 2 4 7 12 15 22 27 26 31 33 33 32 30 31 31 31 31 32 32 33 34 33 33 32 30 29 28 27 26 25 25 25 25 26 26 26 26 25 24 24 23 21 20 19 18 17 17 16 15 15 15 15 15 15 15 15 15 14 14 14 14 13 13 11 9
3 2 1 4 1 2 3 2 3 3 3 4 4 4 7 9 7 5 7 5 4 5 3 6 2 1 6 2 2 5 4 6 5 5 8 14 18 24 27 27 30 31 30 29 28 29 29 29 29 31 31 32 33 33 32 32 31 30 28 27 26 25 25 25 25 26 26 25 24 24 24 24 22 21 20 19 18 17 16 16 15 15 14 15 14 13 14 14 14 13 13 12 12 12 11 10 8
3 2 1 3 2 1 2 0 2 3 3 4 3 5 7 8 5 3 6 6 5 4 5 8 2 3 6 3 4 6 4 6 6 7 12 17 21 24 25 24 25 26 26 26 25 27 28 27 28 30 31 32 32 32 32 32 31 30 29 27 26 25 25 25 25 25 25 23 22 24 25 23 22 21 20 19 17 16 15 14 14 14 14 14 14 13 12 12 12 12 12 11 11 10 10 9 7
4 3 1 2 2 1 2 1 2 2 4 4 4 6 8 6 4 4 6 7 8 5 7 6 3 6 5 3 5 4 4 6 8 10 14 19 24 26 25 22 20 22 21 21 22 25 28 27 26 28 30 31 31 31 31 31 31 30 29 27 26 25 24 24 24 24 23 22 23 25 24 22 21 21 20 18 17 16 15 14 14 13 13 14 14 12 11 10 11 11 10 11 10 9 9 9 7
3 3 2 3 2 1 2 2 3 3 5 4 4 7 6 4 3 5 6 6 8 6 8 4 1 7 3 3 4 3 4 10 8 9 13 20 27 28 28 25 22 23 22 20 18 19 25 26 25 27 28 29 29 29 29 29 29 29 29 27 26 25 24 23 23 23 22 22 23 24 23 22 21 20 19 17 17 16 15 14 14 13 12 12 12 12 11 10 10 10 10 10 10 9 9 9 7
2 2 4 3 2 2 3 2 4 4 5 4 4 6 2 2 3 5 6 6 7 8 8 3 2 5 3 4 4 3 3 7 1 2 12 19 25 28 29 27 24 25 25 24 20 18 22 24 24 25 26 27 27 27 27 27 27 28 28 27 26 25 23 23 22 22 21 21 22 23 22 21 20 19 18 17 16 15 14 14 13 12 12 12 11 11 10 10 10 9 9 10 9 9 9 8 7
3 2 5 2 3 3 3 2 3 3 4 3 4 5 2 2 3 5 4 6 7 7 7 6 4 3 4 4 3 4 1 5 6 5 11 15 20 25 27 27 25 26 26 26 25 22 21 21 22 23 24 26 26 25 25 25 26 27 28 27 26 24 23 22 21 21 20 20 20 21 21 20 19 18 17 16 15 15 14 13 13 12 12 11 11 10 10 10 9 9 9 9 9 8 7 7 6
3 3 5 2 1 2 3 1 3 1 3 5 3 4 3 2 4 4 1 5 8 4 6 6 3 4 4 3 3 4 5 11 10 9 11 13 15 19 24 26 25 27 27 26 26 24 21 20 21 22 22 25 26 24 24 24 24 25 26 27 26 24 23 22 21 20 20 19 19 19 19 19 19 17 16 15 14 14 13 13 12 12 12 10 9 10 10 10 9 9 9 9 8 7 7 6 6
4 2 4 3 1 1 2 2 3 3 4 6 3 3 3 3 3 3 2 2 7 5 5 6 1 2 3 3 3 1 8 14 15 13 14 15 14 16 19 21 22 25 27 27 27 25 24 21 19 21 21 23 26 25 23 22 22 23 24 25 25 24 23 22 21 20 20 19 18 18 17 18 17 16 15 14 14 13 12 12 12 12 11 10 9 9 10 10 10 9 9 9 8 7 6 6 6
3 3 4 2 1 1 3 3 3 3 5 5 3 1 2 6 3 2 4 3 4 6 3 2 3 2 3 4 4 8 16 18 18 17 18 16 15 15 15 16 17 20 24 26 28 27 28 25 20 21 22 22 24 25 24 23 22 21 22 23 23 23 22 22 21 20 19 19 18 17 16 16 16 15 15 14 13 13 12 11 11 11 11 10 9 8 9 10 10 10 10 9 8 7 7 6 6
3 4 4 1 2 3 4 4 3 4 5 5 4 1 1 7 4 3 3 3 3 7 3 2 4 4 2 0 5 16 23 22 22 21 18 15 14 13 13 14 13 15 18 21 27 30 30 29 25 22 22 22 23 25 25 24 23 21 21 22 22 21 22 21 20 20 18 18 18 17 16 16 17 16 16 15 14 14 13 12 12 12 11 10 9 9 9 10 10 10 10 9 9 7 7 6 6
3 3 3 2 4 3 5 6 5 4 3 4 3 1 4 4 5 4 4 4 5 5 4 3 6 7 8 7 6 15 23 22 22 20 15 11 10 10 10 11 9 8 10 13 20 29 31 29 27 24 24 23 23 24 25 25 23 23 22 21 22 21 21 21 20 20 19 18 18 17 17 17 17 17 17 17 16 15 14 13 13 12 13 12 11 11 10 10 10 10 10 9 9 8 7 7 6
3 3 2 3 5 4 4 6 4 3 4 5 5 2 4 5 5 3 4 6 7 7 6 5 6 7 9 9 7 11 18 19 19 18 14 10 8 7 6 6 7 5 4 6 11 22 28 27 25 25 24 23 23 23 24 25 25 24 24 23 23 22 21 21 20 20 20 19 18 18 17 17 17 16 16 16 16 15 14 13 13 13 14 14 13 12 11 11 10 10 10 10 9 9 8 7 7
2 3 2 5 6 5 5 5 6 7 6 5 6 2 2 5 4 2 3 5 6 5 5 4 3 2 4 5 6 7 14 16 17 17 12 10 8 7 9 8 7 5 5 8 7 10 20 24 23 24 23 22 22 23 23 24 25 24 25 25 24 23 22 22 21 21 20 19 19 18 17 17 16 16 16 15 14 14 14 13 13 12 13 14 13 12 12 11 10 10 10 10 10 10 9 8 8
2 3 4 6 4 3 6 6 7 7 5 5 4 2 2 4 2 0 1 3 6 5 4 2 2 5 5 0 2 3 10 12 12 15 13 12 11 11 11 11 11 10 11 15 13 10 16 22 20 21 22 23 22 22 22 23 24 24 24 25 25 24 23 23 22 21 20 20 19 18 18 17 16 16 16 15 14 14 13 13 13 12 12 13 12 12 12 11 11 11 11 11 11 11 10 10 9
2 3 5 5 3 3 6 6 6 5 4 3 2 2 3 1 1 2 2 1 4 5 5 5 5 7 8 6 4 1 5 7 7 9 10 11 12 14 13 12 13 13 12 15 20 17 17 19 18 19 21 22 23 22 22 22 23 23 24 24 24 24 24 24 23 22 22 21 21 20 19 18 17 17 17 16 15 15 14 14 14 14 13 14 13 13 12 11 11 11 11 11 11 11 11 11 10
2 3 4 4 5 5 6 4 4 4 4 3 3 3 1 2 2 3 3 5 8 7 5 5 5 7 9 8 6 5 4 5 3 2 3 5 5 2 5 6 9 11 12 14 17 18 18 18 18 21 20 19 23 22 21 22 23 23 24 24 24 24 24 24 24 24 23 22 22 22 20 19 19 18 18 18 18 17 16 15 15 14 14 14 14 14 13 12 11 10 9 10 11 12 12 12 11
3 3 5 4 6 7 7 4 3 3 5 6 3 1 1 2 2 1 3 8 9 7 4 1 5 8 9 7 6 5 3 2 5 11 16 18 17 13 11 9 6 4 0 6 12 16 18 21 22 24 21 18 22 24 22 21 22 23 23 24 24 24 24 24 24 23 22 22 22 22 22 21 20 20 20 20 19 19 18 16 15 15 15 15 14 14 14 13 12 11 10 9 11 13 13 13 12
3 4 5 3 3 6 7 6 6 4 5 5 2 2 4 5 3 1 6 9 8 8 4 3 6 9 7 4 3 3 5 6 10 14 17 18 16 12 12 13 10 12 13 8 7 11 16 20 22 23 23 20 22 25 23 21 21 22 23 23 23 23 23 22 22 21 21 21 22 22 23 23 23 22 22 21 20 20 19 18 16 16 15 15 15 15 15 15 14 13 11 10 11 13 13 13 13
4 5 4 3 3 6 6 5 7 5 4 4 4 5 4 4 2 0 7 8 7 6 4 2 3 9 9 5 5 4 5 6 8 9 11 12 10 7 5 7 9 9 8 10 13 15 15 16 19 21 23 23 24 25 24 23 23 24 24 23 22 22 21 20 20 19 19 20 22 23 24 24 24 24 23 22 22 21 20 19 18 17 16 16 16 16 16 17 16 15 13 13 12 13 13 13 12
5 5 4 4 6 6 4 5 6 3 4 5 7 6 4 2 0 1 8 8 7 4 6 3 4 6 9 8 5 5 6 7 7 6 7 9 7 7 6 9 10 7 0 4 8 14 15 14 18 22 25 27 28 28 26 24 24 24 24 23 21 21 20 20 20 20 20 20 21 22 23 23 24 24 23 23 22 21 20 20 20 19 19 18 17 17 17 18 18 17 16 14 14 13 13 12 12
3 3 1 5 6 4 3 3 4 2 2 6 8 3 3 5 1 4 7 8 6 2 6 5 3 2 4 9 7 4 6 8 8 7 2 5 6 10 10 11 11 7 2 2 4 6 10 14 19 22 25 28 28 28 26 24 25 24 24 22 21 21 21 21 21 22 22 22 22 23 23 23 24 25 24 24 23 23 22 22 21 21 21 20 19 18 17 18 18 19 18 17 16 15 15 14 13
0 2 2 7 8 5 3 2 2 1 1 5 5 2 6 6 4 7 7 8 4 7 7 5 3 4 3 5 7 5 5 7 8 7 4 1 9 12 10 10 11 9 5 3 2 2 7 13 19 20 20 21 20 22 22 22 23 23 23 21 20 19 18 18 19 20 21 22 23 23 24 24 25 26 25 25 24 24 24 23 23 23 22 21 20 19 18 18 19 19 19 19 18 17 17 17 15
0 3 3 4 8 5 5 3 4 3 1 3 3 2 6 6 8 9 4 4 4 8 6 4 5 4 3 4 6 6 4 5 6 6 2 6 11 12 13 14 12 11 8 4 1 5 9 10 12 13 13 13 13 14 15 17 18 19 19 19 18 17 17 18 18 19 21 21 21 23 24 25 27 26 26 25 25 24 24 24 24 24 23 22 21 20 20 19 19 19 19 19 20 20 20 19 18
0 2 3 3 3 5 7 5 5 5 2 3 6 2 5 6 9 6 1 4 5 7 5 5 5 4 4 4 7 7 6 7 8 6 4 8 13 16 21 21 18 21 18 8 3 8 9 7 4 3 6 9 10 10 10 12 14 16 17 18 18 18 19 20 20 20 21 21 21 22 23 25 27 27 26 25 25 25 25 25 24 24 23 22 22 22 21 21 20 19 19 19 20 20 20 20 21
3 3 2 4 2 4 9 5 1 3 2 4 8 2 5 4 8 7 2 5 7 7 5 5 5 5 5 5 8 9 7 10 13 12 9 10 14 19 25 25 25 27 20 10 11 19 19 16 14 10 6 2 5 8 9 10 12 14 16 17 18 19 20 21 20 19 20 20 20 20 21 24 26 27 26 25 25 25 26 26 25 24 24 23 23 23 23 23 21 20 20 20 20 20 20 21 21
4 3 1 3 1 3 6 4 2 1 2 4 5 3 2 3 7 9 4 5 7 8 6 5 5 5 5 5 6 9 8 9 12 12 12 13 15 20 24 26 27 24 16 16 22 24 22 20 19 16 14 11 8 6 6 7 9 11 13 15 17 18 20 21 21 20 19 19 20 20 21 24 27 27 27 27 27 27 27 26 26 25 25 24 23 24 24 24 23 22 21 21 22 21 20 21 21
3 3 1 3 2 1 4 4 4 4 2 2 3 2 3 2 7 7 5 3 6 8 7 6 5 4 5 5 5 8 9 8 7 9 13 16 18 21 23 25 25 24 23 26 27 25 24 22 20 19 17 14 12 10 9 7 7 8 10 12 14 15 16 18 20 21 20 20 21 22 22 24 26 28 29 28 28 29 29 28 27 26 26 25 24 24 25 25 24 24 24 23 23 22 21 21 20
2 1 1 2 2 2 3 4 3 5 4 1 2 2 3 1 7 5 3 4 4 6 5 4 5 5 5 5 6 6 7 7 5 8 13 17 20 22 23 25 26 26 27 27 27 26 26 24 22 21 19 17 15 13 11 10 8 7 8 9 11 12 13 15 17 20 21 21 23 24 24 26 27 28 29 29 29 29 29 29 28 28 27 26 25 25 25 25 25 26 25 25 24 24 22 21 20
5 4 3 2 2 4 5 5 5 2 3 2 2 4 2 1 6 5 2 1 4 5 5 4 4 4 5 5 5 5 7 6 6 10 15 17 20 22 24 26 26 27 26 25 25 25 24 23 22 22 20 18 16 16 15 14 12 10 9 10 11 12 13 14 14 17 20 22 25 25 25 28 30 30 29 28 28 29 29 29 29 28 28 27 26 26 26 26 27 27 27 26 26 25 24 23 22
4 3 2 2 3 5 6 5 6 0 2 3 2 3 1 2 6 6 2 2 5 6 6 5 4 5 5 6 5 6 7 5 6 11 15 18 21 22 23 23 23 24 24 23 24 24 23 22 22 22 21 18 18 18 18 18 17 15 12 10 11 13 14 14 13 14 16 19 23 24 25 28 30 32 31 30 29 28 29 29 29 28 28 28 28 28 27 26 27 28 27 27 27 26 26 24 23
2 3 1 3 3 5 6 4 5 2 2 2 2 2 4 4 6 5 3 3 6 8 8 8 7 6 4 6 6 6 6 4 6 10 13 18 20 21 21 21 21 22 23 22 23 23 22 21 21 21 20 19 20 19 17 17 18 16 13 11 11 12 12 13 13 13 14 16 18 20 22 24 27 29 30 31 30 30 30 29 29 29 29 29 29 29 27 26 27 27 27 27 27 27 26 25 24
3 3 2 2 3 4 6 4 5 3 1 2 2 1 3 6 5 2 3 3 4 3 3 5 7 8 6 5 5 6 6 5 5 6 9 14 17 19 20 21 21 21 22 21 20 20 20 20 20 19 18 19 19 18 18 17 16 16 15 13 11 10 10 12 14 15 14 15 16 17 19 20 23 25 27 28 29 30 30 29 29 28 29 29 29 29 28 28 28 28 28 28 26 26 26 26 25
2 4 3 2 3 1 2 4 5 3 1 0 1 1 2 5 4 1 3 4 3 4 4 4 1 4 4 5 5 5 7 6 6 5 6 11 15 18 20 21 20 19 20 20 19 18 18 18 17 17 17 17 17 17 18 16 15 14 14 13 11 9 8 10 14 16 15 15 15 16 17 18 20 23 25 26 27 29 30 30 29 29 29 29 29 29 29 30 30 30 29 29 26 24 24 26 26
2 3 5 4 3 4 4 2 4 3 3 2 4 4 3 4 2 2 4 3 2 4 4 5 5 3 2 3 3 3 4 5 6 5 5 8 13 17 19 19 18 18 19 18 18 17 17 16 16 16 16 16 17 17 17 17 16 16 15 15 14 13 13 13 14 17 18 17 16 17 17 17 18 20 22 24 26 27 29 30 30 30 30 30 30 30 31 31 31 31 30 30 30 27 26 25 25
3 4 7 7 5 5 3 2 4 4 4 3 4 3 4 4 0 4 4 0 1 2 3 2 3 2 2 3 2 2 3 4 4 5 5 7 11 14 15 17 17 17 17 16 16 16 16 16 15 15 16 17 18 18 18 18 18 18 19 18 17 18 18 17 16 18 20 19 18 17 16 17 18 19 20 22 24 26 28 29 29 30 30 30 30 30 32 32 31 32 32 31 32 32 29 24 24
2 5 7 6 5 5 3 2 3 2 2 3 2 3 3 4 1 4 2 3 3 1 1 2 1 2 3 3 2 1 2 3 4 5 4 6 9 11 13 14 15 14 13 14 15 15 16 16 16 16 17 18 19 20 21 21 21 20 20 18 17 16 17 18 19 19 20 20 20 18 16 15 16 18 19 20 22 24 26 28 29 29 29 29 30 31 31 31 32 33 32 32 33 34 30 25 26
3 5 6 7 5 4 4 5 4 2 3 3 4 3 2 3 4 5 2 5 3 2 3 4 4 5 4 3 2 1 2 3 4 4 3 4 8 11 12 12 13 12 12 13 14 15 15 15 16 16 17 18 20 21 22 23 23 22 21 19 18 17 17 19 21 22 21 21 21 20 18 15 15 17 19 20 21 23 24 26 28 29 29 29 29 30 31 31 32 32 31 32 34 33 31 31 30
5 4 7 6 4 4 4 5 3 0 1 4 5 1 2 4 4 3 1 5 6 7 8 7 6 6 5 4 4 4 4 3 4 4 4 6 9 12 12 11 10 10 11 12 13 13 13 14 15 16 18 19 20 21 23 24 24 23 22 21 21 21 20 21 22 23 22 22 23 23 21 18 16 15 17 19 20 22 24 25 27 28 29 29 29 30 30 31 31 31 30 31 34 34 34 34 32
3 5 7 5 5 4 4 4 3 2 2 4 6 1 2 4 4 1 1 3 8 8 7 6 6 6 6 6 6 5 4 4 4 4 5 7 9 11 10 10 9 9 10 10 10 10 11 12 14 16 18 20 20 22 23 24 24 24 24 23 22 23 23 24 24 23 23 23 24 24 24 22 19 17 17 18 19 20 22 24 26 27 27 29 30 30 30 31 32 31 32 32 33 34 35 35 34
3 6 6 5 5 5 3 2 3 3 2 5 6 2 4 2 4 4 4 4 6 8 5 5 6 7 8 7 5 5 5 4 4 4 5 6 8 9 8 9 8 8 8 7 8 9 10 12 14 16 18 19 21 22 23 24 25 24 24 23 23 23 24 24 25 24 24 24 24 24 25 24 21 20 18 18 19 20 21 23 24 25 26 28 29 30 30 31 32 33 33 34 34 34 34 34 34
5 4 4 2 2 4 3 4 3 2 3 5 5 2 5 2 5 5 7 6 4 7 9 9 11 10 9 7 5 5 5 5 5 5 5 5 6 9 9 8 7 6 5 5 6 8 10 11 13 15 18 19 21 22 23 24 24 25 25 24 24 23 23 23 23 24 23 22 23 24 25 25 24 22 21 19 18 18 21 23 24 25 25 27 28 29 31 32 32 33 32 32 32 32 33 33 32
5 4 4 3 1 3 2 3 1 2 4 4 3 1 3 4 6 5 8 8 5 7 9 11 13 12 9 7 6 5 5 5 5 5 5 5 6 10 11 9 7 5 4 4 5 7 9 11 13 15 17 19 20 21 22 23 24 25 25 25 25 25 24 23 22 22 21 21 21 22 24 27 27 25 23 22 20 19 20 22 24 24 25 26 27 28 30 32 32 33 32 31 31 32 33 33 33
4 4 4 3 2 2 1 3 1 2 4 2 3 2 1 4 4 4 7 8 7 7 7 9 11 12 10 8 6 5 5 6 5 5 5 5 7 11 12 10 8 6 5 3 3 6 9 11 13 15 17 18 20 21 22 23 24 24 25 25 26 25 24 23 22 21 21 20 21 22 24 26 28 26 23 23 23 21 20 22 24 25 25 26 27 27 29 30 32 33 33 33 33 34 34 32 34
3 4 5 4 4 3 3 3 2 3 2 2 3 1 2 2 3 4 6 6 6 6 6 7 7 7 6 5 5 5 6 6 5 6 6 7 11 14 13 11 9 7 5 3 2 6 8 11 13 15 17 19 20 21 22 23 23 24 25 25 26 25 24 24 23 22 21 21 22 23 24 25 26 26 25 25 26 25 23 22 23 24 25 27 27 27 27 29 30 31 33 33 33 33 31 30 32
2 2 4 2 4 4 2 2 4 2 1 2 2 2 3 3 4 4 3 3 3 1 5 8 8 6 4 5 6 6 6 6 6 6 6 8 12 13 12 11 10 7 5 3 1 5 8 10 13 15 16 18 18 19 20 22 23 24 25 26 26 26 25 24 24 24 23 23 23 23 24 24 25 27 28 29 28 27 25 24 23 24 24 26 27 27 27 28 29 30 30 32 33 31 30 30 32
1 1 3 4 3 6 4 1 1 3 1 2 1 2 4 3 2 4 3 2 3 2 5 8 9 7 6 7 7 6 7 8 7 7 7 8 10 12 13 12 11 8 6 3 0 3 6 9 12 14 16 17 17 18 19 20 22 24 25 26 26 26 26 25 25 25 25 24 23 23 25 26 27 28 30 30 29 28 28 26 25 25 24 25 26 27 27 28 29 29 30 30 31 31 31 32 33
4 2 4 3 2 4 4 1 3 3 1 3 1 3 4 2 2 4 3 0 2 2 5 6 6 7 8 8 8 8 9 8 7 7 6 7 9 12 14 14 12 10 7 4 2 2 5 8 11 13 15 17 17 17 18 19 21 24 25 26 27 27 27 26 26 26 26 25 25 26 26 27 27 27 28 29 29 30 29 28 26 25 25 26 26 27 27 27 28 28 29 30 30 30 31 32 34
3 4 3 3 2 0 1 2 1 0 2 3 3 3 3 3 3 3 3 6 6 5 5 6 8 9 9 9 9 9 8 7 7 7 6 6 10 13 15 15 14 11 9 6 3 2 5 8 10 12 14 16 17 18 18 19 21 23 25 26 27 27 27 27 27 27 27 26 27 28 28 28 27 26 27 28 29 30 30 29 27 26 25 25 26 27 27 27 28 28 28 29 30 30 30 31 33
3 2 2 1 2 3 2 2 3 2 2 2 3 3 2 5 5 5 8 9 8 7 6 8 11 12 11 9 9 9 8 7 7 7 6 7 11 15 16 16 15 12 10 8 4 3 5 9 11 12 14 16 17 19 19 20 22 23 25 26 27 27 27 28 28 28 28 28 28 29 29 29 28 27 27 28 30 30 30 29 28 27 26 25 26 27 27 27 28 28 28 29 29 30 30 31 32
2 1 1 1 1 2 1 1 2 3 3 2 1 2 4 5 4 6 9 9 9 10 10 10 11 11 11 10 9 8 8 8 8 7 7 8 11 15 15 16 15 12 10 8 5 4 7 9 11 13 15 17 19 20 20 21 22 23 26 27 27 27 27 27 28 29 28 28 28 29 29 30 29 28 28 29 30 30 29 30 29 27 27 26 26 26 27 27 28 28 28 29 30 29 29 31 31
3 3 3 3 3 2 1 1 1 2 3 3 3 2 6 5 3 5 7 7 8 9 10 9 9 11 11 10 9 9 8 9 9 8 7 7 10 13 15 15 14 12 11 8 5 5 7 9 11 13 16 18 20 21 22 22 22 24 26 27 27 27 26 27 28 29 29 28 28 28 29 30 30 29 28 28 29 29 29 29 28 27 26 25 26 26 26 27 28 29 28 28 29 29 29 31 31
Wind_Direction
45 75 105 127 103 360 348 54 64 325 86 86 293 232 261 255 244 9 318 326 324 294 220 236 216 159 167 191 216 215 186 178 175 151 203 284 327 173 168 168 166 164 166 170 171 170 170 168 164 162 159 157 155 154 153 150 146 144 143 143 145 147 148 149 149 148 145 140 136 135 133 133 132 129 128 127 127 129 130 130 128 128 128 127 126 125 123 123 122 121 121 120 116 112 111 109 111
50 90 107 125 73 25 297 68 89 329 59 17 284 196 256 312 348 222 259 283 268 274 287 253 271 321 196 181 226 249 241 215 188 173 234 329 76 163 167 171 169 165 167 170 171 171 170 168 166 162 158 156 155 154 152 150 147 146 145 144 145 144 145 146 146 144 140 137 136 136 136 136 132 129 129 129 131 131 131 130 128 129 129 131 129 127 125 126 126 125 125 123 119 115 114 112 112
83 117 124 144 65 41 54 41 98 56 85 233 275 249 277 332 284 243 233 235 255 280 303 290 302 302 186 238 217 209 259 255 190 177 287 146 138 167 174 178 174 170 168 170 171 172 171 169 168 163 157 155 154 154 153 152 149 148 148 147 147 146 147 145 143 143 140 139 139 138 138 137 135 132 131 132 135 134 135 136 134 132 130 132 131 128 127 129 130 129 129 126 125 123 122 120 119
121 130 141 163 69 26 67 48 141 119 138 218 264 269 271 263 254 260 250 233 259 285 293 286 287 262 168 230 212 171 253 270 203 176 171 177 175 176 178 184 179 173 170 171 173 175 174 172 171 165 160 158 157 158 157 155 153 150 150 149 150 150 150 149 148 148 144 142 141 140 139 138 138 136 133 133 134 133 132 135 136 137 137 135 133 133 132 132 134 133 133 132 131 131 130 129 128
131 138 145 146 99 29 103 80 119 120 193 189 205 270 251 238 265 284 274 245 253 262 263 258 283 280 160 226 183 167 235 250 248 201 176 179 182 180 182 185 177 173 172 173 175 177 175 173 172 168 165 163 161 162 161 159 156 153 152 151 152 152 152 152 152 152 147 146 144 142 141 140 139 135 132 133 133 130 126 125 125 127 133 139 138 139 137 135 138 138 137 135 134 134 132 132 133
124 130 88 70 101 166 117 111 148 164 219 174 173 263 267 258 274 289 297 284 250 246 246 218 258 288 279 262 195 210 218 171 251 203 185 178 184 183 182 182 176 175 174 175 177 178 176 174 172 170 167 164 163 165 164 161 158 156 154 154 154 154 154 154 154 154 150 148 145 142 141 139 137 134 134 136 136 133 131 128 123 119 120 132 140 143 142 140 142 142 140 139 138 135 133 131 130
127 129 41 66 45 37 109 153 180 219 235 182 178 251 287 287 281 300 313 317 307 301 276 237 292 347 265 286 279 250 229 257 241 186 186 178 182 183 181 180 178 176 176 176 178 178 177 174 173 170 167 165 164 165 164 161 160 158 156 156 156 156 156 155 156 155 152 149 145 142 140 139 138 138 140 140 139 138 136 135 134 128 121 124 134 146 148 146 145 145 144 143 141 137 133 128 124
116 126 9 95 52 20 105 148 195 213 238 220 207 240 273 282 292 319 313 319 315 302 295 280 295 263 264 252 248 273 252 247 245 210 188 177 180 182 181 178 177 176 177 177 177 178 177 175 173 171 169 166 166 166 165 163 162 160 159 158 158 158 157 156 157 157 155 152 148 145 143 143 143 144 145 144 143 141 140 139 138 136 132 128 129 140 150 152 151 148 149 148 144 137 131 126 124
71 48 18 94 114 48 62 330 249 238 252 262 257 261 269 281 300 324 305 303 295 279 268 271 221 214 261 233 236 283 276 232 224 212 190 179 176 173 170 170 173 173 175 176 178 178 176 175 173 173 171 169 169 168 166 165 164 163 161 160 160 160 158 157 159 160 159 157 152 148 147 148 149 150 150 149 148 146 144 142 139 140 141 138 132 134 143 151 153 153 154 153 148 140 134 130 129
42 27 129 80 110 83 337 281 267 256 248 261 270 266 272 288 312 304 295 296 300 303 278 275 166 214 236 227 241 280 253 196 187 193 183 172 164 159 160 162 165 166 169 174 179 180 176 175 174 176 174 171 172 170 168 168 166 165 164 163 163 162 160 159 160 162 162 158 153 151 151 152 153 154 154 153 151 150 148 146 145 146 146 144 141 139 142 148 151 153 156 156 151 144 138 134 131
37 354 103 84 78 163 238 239 267 262 267 295 287 262 255 272 307 298 296 302 299 299 290 318 157 220 209 239 245 285 198 174 181 185 169 162 160 161 166 167 167 166 168 176 184 182 178 177 177 178 176 173 173 172 170 170 168 166 166 165 165 164 162 160 161 163 163 160 157 156 155 155 156 156 156 155 155 154 154 153 152 152 151 149 147 148 148 149 151 153 155 154 152 149 144 137 134
84 338 66 95 152 195 197 204 261 272 298 318 288 270 252 292 313 295 299 306 294 301 291 261 220 204 182 253 251 304 189 167 258 169 158 157 162 169 172 171 170 172 174 179 184 183 181 180 180 179 177 175 174 174 173 172 171 168 168 168 167 167 164 162 163 164 164 164 162 161 159 158 159 160 159 159 159 160 160 160 159 158 157 154 153 154 154 153 155 157 156 155 155 155 151 144 139
125 155 90 130 192 166 168 171 259 294 317 281 249 273 317 324 286 263 276 298 289 305 286 236 234 204 201 253 273 307 39 66 42 113 149 151 159 165 167 166 167 173 176 178 176 177 182 183 185 183 179 177 177 178 176 176 174 171 171 170 170 169 166 164 164 165 166 167 166 165 164 162 162 163 163 163 165 166 166 166 165 164 161 160 160 160 158 158 162 162 162 161 159 160 160 156 146
144 153 115 159 200 128 170 184 268 254 278 258 246 288 318 271 244 246 213 311 298 278 276 266 214 198 231 273 305 323 49 67 85 120 136 140 147 153 160 164 168 171 172 176 173 171 179 186 190 186 183 180 179 180 178 180 178 175 174 173 173 172 169 166 166 167 168 169 169 169 168 167 166 166 167 169 170 170 171 170 169 167 164 165 167 165 163 163 168 167 167 169 165 167 171 167 156
148 135 96 119 31 9 211 224 213 179 245 254 248 286 318 263 247 300 221 265 289 261 276 291 137 179 221 202 260 349 85 91 103 119 130 136 139 142 155 165 172 173 173 178 173 169 177 190 196 189 189 185 182 181 180 181 181 180 177 176 176 174 172 170 168 169 170 171 171 172 172 171 169 168 171 174 174 174 174 174 171 171 170 171 173 172 170 168 170 173 174 175 170 172 181 178 170
130 106 71 92 201 275 228 217 179 177 247 243 257 315 343 286 264 286 243 172 286 302 341 321 357 327 217 189 206 133 114 112 116 126 133 139 144 142 149 157 169 173 177 180 173 171 176 187 198 191 191 192 187 184 181 181 183 183 180 181 180 177 176 174 173 172 172 172 172 173 173 173 173 173 175 178 178 178 177 177 176 176 177 178 181 181 181 176 175 179 181 183 181 176 184 191 181
76 83 77 100 194 211 207 203 180 189 254 266 291 359 91 298 296 260 271 108 289 312 9 347 360 360 335 73 161 132 122 124 125 127 129 136 144 143 145 151 159 167 175 182 176 171 174 185 195 194 192 194 192 187 184 182 184 186 183 184 183 180 179 178 177 176 174 172 173 173 174 178 179 180 181 182 182 184 184 180 179 182 184 187 192 194 193 188 184 185 186 188 192 188 190 199 193
68 90 114 174 193 202 188 191 194 183 256 272 291 93 145 282 296 293 327 353 319 336 358 356 32 31 26 42 91 116 120 124 121 120 120 131 149 147 148 151 144 149 167 182 181 172 174 184 190 195 196 194 194 190 188 185 184 187 187 186 185 184 181 180 180 180 180 177 176 176 179 183 183 185 187 187 187 187 187 186 186 188 194 199 204 206 205 199 194 193 192 193 197 201 203 207 207
102 112 134 214 203 209 195 186 200 206 244 264 288 285 182 228 256 314 331 308 333 358 335 356 46 34 25 33 49 92 111 113 111 110 111 130 158 149 131 120 94 75 121 171 191 178 175 181 189 198 199 195 194 192 191 189 186 187 190 188 187 186 183 182 183 184 186 184 183 184 186 187 186 189 191 193 192 188 186 188 192 193 198 205 208 210 208 203 200 200 201 200 201 206 211 214 217
159 118 147 243 212 227 241 200 218 231 237 267 283 291 208 229 231 324 308 297 338 337 303 348 35 57 32 4 12 75 103 104 110 113 116 136 157 151 134 126 116 112 153 172 196 184 173 177 189 201 202 198 196 194 193 191 189 190 191 190 189 188 186 185 187 187 189 189 189 191 193 191 191 193 194 196 198 194 188 186 193 196 198 203 208 209 208 205 203 205 207 208 208 209 211 215 220
175 136 191 234 189 243 248 203 227 234 219 244 271 14 302 249 199 202 281 328 328 289 249 246 225 167 140 159 335 73 105 107 116 122 132 148 164 172 157 154 166 175 178 174 178 191 181 179 190 203 205 200 196 196 195 192 192 193 193 193 192 190 189 188 190 192 192 191 193 196 197 195 195 196 196 196 202 205 197 189 192 197 200 201 206 211 214 211 207 206 209 213 216 215 214 214 219
159 217 226 223 148 255 248 200 230 219 177 229 268 315 262 258 76 188 171 245 261 247 218 194 203 179 158 161 161 115 111 121 128 136 155 164 173 182 174 171 183 187 185 177 176 187 191 190 199 209 210 201 197 197 195 193 193 196 198 197 197 195 194 193 194 196 194 194 196 198 198 197 198 199 200 199 204 210 207 201 198 202 206 205 206 214 219 219 216 211 211 218 222 224 223 219 220
184 274 280 245 183 230 251 208 218 177 144 211 223 245 230 64 316 223 168 230 238 239 226 188 188 171 153 145 147 161 161 153 145 74 36 44 51 127 179 180 192 190 185 185 186 189 194 201 208 213 214 202 198 201 196 193 195 199 202 200 202 201 200 199 199 200 198 197 198 200 199 199 201 201 204 204 206 211 213 212 209 211 214 213 212 216 222 224 226 223 220 225 228 231 231 227 225
168 264 291 263 194 215 256 257 249 176 173 225 219 255 191 132 283 272 218 250 257 275 300 139 161 143 133 140 158 169 137 67 34 38 38 40 43 41 34 29 9 353 294 197 201 203 205 211 208 207 214 203 195 201 199 196 198 203 206 203 204 205 205 204 203 204 203 201 202 204 204 203 204 205 206 208 210 213 217 218 217 218 222 225 224 223 225 225 228 230 230 232 236 238 237 234 232
155 225 261 272 199 232 271 284 277 243 211 233 221 254 230 199 199 194 254 262 274 287 343 95 149 118 110 123 108 69 53 43 41 49 49 47 52 56 45 34 29 17 358 323 270 239 226 223 213 203 210 208 199 202 201 197 200 206 209 208 207 208 207 207 207 207 208 208 208 210 211 209 208 208 208 209 211 214 218 222 222 223 227 232 235 235 234 233 230 230 231 234 241 245 244 240 237
201 212 245 265 267 275 289 283 269 256 243 195 187 255 258 225 206 281 271 267 286 297 45 67 176 125 122 107 85 89 79 71 63 57 47 39 40 60 58 27 46 49 357 316 309 292 259 240 229 217 215 212 208 208 204 199 201 206 210 211 211 210 209 209 209 209 211 213 213 214 215 217 216 213 212 212 212 215 218 222 225 227 229 232 236 240 242 243 240 235 233 234 240 247 251 249 245
206 213 240 248 269 282 273 261 262 261 254 189 187 245 267 294 310 268 275 281 301 318 57 352 250 139 132 117 115 133 107 101 104 81 29 354 1 54 49 18 41 73 94 247 280 291 278 258 242 235 226 216 212 213 211 204 201 205 209 210 211 211 211 211 212 213 214 215 215 217 219 223 225 223 219 217 215 217 220 223 228 230 231 232 235 239 243 246 247 245 242 241 241 246 253 255 251
200 203 289 294 307 299 261 251 257 283 268 191 177 224 320 355 21 217 268 303 309 93 62 333 277 98 113 119 124 134 120 125 115 99 75 311 357 49 40 18 33 45 10 234 237 283 284 259 237 231 223 213 207 208 209 205 201 203 207 209 210 210 211 212 214 217 218 218 218 219 222 225 228 231 229 225 222 221 222 225 230 232 234 235 236 239 242 245 250 252 250 248 247 246 251 255 253
134 74 13 314 354 354 301 330 281 316 263 199 150 29 342 344 299 267 283 307 328 87 66 350 360 19 19 99 108 115 122 121 103 113 163 2 37 45 38 30 33 32 360 327 349 281 243 232 226 224 216 207 202 201 204 204 204 206 207 210 210 210 210 211 216 222 225 225 224 223 224 225 228 232 233 232 230 228 227 227 230 233 236 237 238 240 242 245 248 251 252 252 252 250 249 252 254
230 54 56 334 8 344 311 351 337 18 321 282 88 41 299 296 290 280 288 332 34 71 57 25 22 19 34 58 79 88 84 92 107 128 126 49 58 61 64 62 55 52 40 16 72 189 198 197 209 222 222 217 212 207 208 210 213 214 214 215 215 216 219 220 223 229 233 234 234 233 231 230 229 231 234 235 234 234 234 233 234 236 238 239 241 242 242 244 245 247 250 252 254 253 252 254 256
107 31 43 27 29 299 309 326 344 22 347 1 77 137 266 290 294 274 88 48 91 86 44 37 29 17 37 62 81 75 53 59 80 100 82 72 81 80 80 77 71 68 59 40 115 123 109 98 112 201 231 236 236 232 227 225 224 223 224 228 230 229 226 227 229 231 235 237 238 239 240 239 235 233 234 236 238 237 238 239 239 240 242 243 244 245 245 245 245 246 247 250 253 254 254 255 257
34 52 336 349 58 282 308 311 7 11 292 42 78 165 273 280 284 289 39 74 110 99 59 44 39 27 23 47 84 85 73 70 77 90 99 100 92 85 85 83 78 75 68 61 81 81 75 70 63 54 43 330 270 260 252 246 240 234 235 239 245 242 234 233 234 235 238 237 236 240 246 249 246 240 237 237 240 240 240 242 243 246 247 247 248 248 248 246 246 246 247 248 251 252 254 255 257
1 72 207 292 351 300 316 325 346 342 266 20 65 163 262 287 285 302 356 88 111 107 98 81 58 48 45 48 85 99 97 85 82 87 95 99 93 87 85 84 84 84 81 78 79 78 75 72 65 56 47 34 15 344 310 284 266 256 252 252 257 256 249 243 239 239 240 239 241 243 246 250 251 248 243 240 240 242 242 243 245 249 250 250 250 250 250 250 249 249 250 250 250 252 254 256 257
322 25 61 261 259 276 318 320 327 30 70 317 26 146 193 250 282 306 351 39 106 120 126 123 113 96 90 92 99 106 103 94 78 75 90 96 94 93 90 88 88 85 81 77 76 76 74 72 69 64 56 47 39 26 9 344 314 290 277 271 271 271 267 257 248 246 245 245 249 246 243 245 248 249 248 245 242 242 243 245 247 248 250 250 250 251 251 252 252 252 254 254 253 252 252 255 258
215 248 42 296 295 269 284 280 288 21 27 259 40 305 234 246 276 289 3 3 89 116 116 118 128 119 117 116 105 100 89 78 64 77 93 98 98 96 92 89 85 79 76 74 72 71 69 68 65 63 59 55 51 43 36 24 7 343 318 307 298 291 289 279 265 258 255 254 256 254 249 248 250 250 248 247 245 244 243 244 247 247 248 248 248 250 249 249 249 249 252 255 255 254 254 256 257
175 187 159 199 269 277 266 258 262 11 22 293 166 235 260 335 261 232 161 83 107 115 108 114 133 126 127 118 99 88 81 77 78 87 91 91 90 89 85 81 77 73 70 69 69 66 64 63 62 60 55 52 49 42 37 30 22 12 351 335 325 319 315 304 287 271 261 256 258 259 256 253 253 253 250 247 246 245 243 243 244 245 246 245 245 246 246 246 247 248 250 253 255 255 255 255 255
140 124 131 209 217 267 270 267 281 76 116 278 220 201 40 9 263 239 211 119 138 145 137 151 164 150 150 127 103 87 90 94 86 82 83 85 85 84 82 79 76 71 64 61 62 59 58 56 54 54 50 47 45 39 34 28 25 18 1 344 335 333 330 319 306 292 277 266 262 260 258 255 254 253 252 250 248 247 244 242 241 242 242 242 244 246 247 248 248 249 250 252 253 251 252 254 253
107 117 192 274 216 247 264 261 297 340 145 277 323 28 28 348 282 244 207 178 173 168 159 172 172 162 158 124 116 113 108 101 87 78 77 81 83 83 82 79 76 71 63 58 56 53 51 48 46 43 39 38 39 36 33 29 27 21 9 355 340 332 332 328 319 312 301 290 281 272 267 263 258 255 253 251 250 247 242 239 239 239 239 239 242 244 245 245 246 246 246 247 249 248 250 254 251
125 127 144 273 236 259 285 286 315 357 130 283 309 31 8 324 303 205 208 237 225 208 156 170 170 163 160 138 137 135 124 110 95 83 77 82 83 82 79 73 71 67 62 56 50 46 42 40 39 35 31 31 31 30 28 25 22 21 17 12 357 336 331 329 322 319 316 310 300 287 278 271 263 259 255 252 249 247 242 238 238 238 238 237 238 239 239 239 241 242 242 243 245 246 248 250 247
136 129 135 246 245 228 278 294 317 357 56 230 154 94 342 332 1 96 281 301 302 327 23 27 47 144 153 152 148 141 138 127 108 92 83 86 80 75 72 67 64 61 58 53 48 44 40 37 34 31 30 27 25 24 23 19 14 11 10 11 8 353 339 328 323 323 325 325 319 308 295 283 271 263 258 255 252 250 246 242 240 238 237 236 235 235 236 237 237 237 239 240 239 240 243 245 244
265 171 169 214 217 193 207 287 327 352 12 46 78 42 332 337 33 232 297 352 347 350 39 24 11 51 91 129 130 116 124 122 113 104 84 80 77 75 74 72 70 67 65 62 57 54 50 46 39 34 31 27 25 21 16 13 7 3 359 356 355 353 349 345 340 334 332 332 327 320 311 302 290 277 268 260 255 253 251 249 245 239 236 235 233 233 235 238 237 236 237 238 236 236 239 242 243
284 223 194 195 178 176 199 5 27 32 355 333 49 42 299 318 76 227 283 303 209 6 50 360 5 68 127 137 117 64 71 79 93 96 86 83 85 85 85 84 82 79 77 74 70 69 66 59 51 43 36 30 25 19 15 11 7 6 6 4 360 353 346 344 343 337 334 333 328 322 315 308 302 293 282 269 259 255 253 253 249 243 237 234 233 234 235 236 237 237 236 234 235 237 237 239 242
263 231 189 170 139 127 136 99 73 80 264 290 47 116 254 308 221 219 250 180 203 9 55 283 269 176 191 179 146 78 80 79 82 90 94 100 102 100 97 95 93 92 91 86 82 79 73 66 60 53 45 37 30 24 17 13 11 8 6 5 1 352 340 332 331 330 329 328 327 326 319 311 305 300 294 284 272 261 256 254 251 248 243 237 234 234 235 235 237 238 236 234 236 237 233 233 240
228 224 153 138 136 149 158 127 116 198 246 317 11 108 187 284 255 245 192 155 204 245 222 242 228 209 214 208 200 181 168 137 121 122 125 132 128 119 113 112 110 109 105 95 88 80 71 65 60 54 47 40 33 26 20 16 15 11 5 360 351 344 335 327 324 324 323 322 322 323 323 318 309 302 298 294 284 272 264 258 254 251 248 243 237 234 235 237 239 238 235 235 236 236 231 232 237
239 185 120 127 143 157 146 115 114 17 12 318 320 61 169 267 274 296 92 158 207 221 217 220 217 220 218 207 211 207 203 189 165 164 172 167 147 134 131 132 127 120 108 94 86 76 65 59 52 45 40 35 28 23 19 16 14 11 7 1 351 342 334 325 321 320 317 317 316 316 319 321 315 307 300 297 291 282 273 265 259 254 250 246 242 238 237 239 240 238 235 234 235 235 234 234 236
229 119 85 62 64 74 89 102 115 57 31 256 272 272 185 273 279 229 106 212 220 213 215 223 220 225 220 210 208 201 202 205 202 200 191 173 154 149 149 147 137 120 104 90 80 69 58 51 42 36 32 27 22 19 16 14 12 9 6 2 354 345 337 330 324 321 317 315 313 310 313 318 318 314 306 298 294 290 283 273 265 259 254 250 246 242 238 238 240 239 237 236 235 236 236 235 236
116 98 68 46 35 35 44 58 93 80 304 255 259 226 162 268 276 199 189 229 209 189 196 218 218 221 220 215 209 204 202 200 208 215 203 182 171 174 174 164 145 118 102 87 74 62 52 44 37 33 28 22 18 15 12 10 8 6 4 1 354 346 340 334 327 322 319 317 314 309 308 312 315 313 310 303 297 294 290 281 272 266 260 253 249 245 241 238 238 239 239 237 236 236 236 236 237
99 91 78 93 339 6 28 358 43 109 259 262 269 236 140 186 266 226 225 250 214 184 191 196 201 211 216 214 209 208 207 203 209 212 207 200 198 203 197 179 151 124 110 89 70 55 47 39 31 28 24 19 15 12 10 7 5 3 1 358 354 347 339 333 326 320 317 316 315 311 306 307 309 310 308 305 301 296 290 285 277 268 260 256 252 250 246 241 238 238 239 237 234 234 235 236 237
89 93 83 107 315 2 6 312 349 201 246 258 275 278 156 220 248 224 229 250 242 208 201 196 197 201 205 207 207 205 207 212 213 210 209 210 211 211 203 185 164 148 132 102 73 52 44 35 26 24 21 17 12 9 7 4 2 1 358 355 352 347 339 333 326 320 316 313 312 310 306 305 305 307 306 302 301 297 290 285 280 271 263 259 256 254 251 245 239 237 237 237 235 234 233 233 236
136 140 123 130 116 62 284 273 299 266 259 265 283 274 247 277 265 211 222 245 247 231 216 202 199 199 197 197 197 201 211 216 217 215 211 212 215 213 205 189 178 171 154 126 75 47 37 27 21 19 17 13 9 5 3 1 360 357 355 352 350 346 340 333 326 320 315 311 309 307 305 304 304 303 301 297 296 297 292 285 282 277 271 265 260 257 254 250 245 241 239 238 238 237 235 232 235
182 166 135 145 155 152 224 228 202 248 266 287 299 266 186 236 246 217 227 253 262 242 211 184 187 202 196 188 194 207 220 222 224 224 219 221 221 216 208 196 190 186 171 152 61 35 24 17 14 11 10 8 5 2 360 358 357 354 352 350 349 345 339 332 326 320 314 311 309 307 305 305 304 300 297 294 292 294 296 290 284 280 275 270 264 258 256 252 247 242 238 238 238 239 237 234 236
234 151 114 156 184 151 162 194 173 180 272 295 285 233 212 217 246 269 274 300 320 241 176 158 167 188 180 190 207 210 218 223 224 224 226 231 227 221 214 205 202 199 187 179 44 24 12 8 6 3 3 3 1 359 357 355 353 351 349 348 347 345 339 331 326 322 318 313 310 307 304 303 301 298 295 293 290 289 293 294 288 282 277 272 266 260 256 253 248 242 238 237 237 238 238 237 239
200 133 172 216 178 121 116 217 60 82 117 275 254 249 295 317 287 309 1 25 20 89 163 165 170 176 180 202 212 210 216 221 222 222 225 229 227 225 221 213 208 205 200 201 327 11 6 4 359 356 355 355 355 353 351 351 349 347 346 345 345 344 339 332 324 321 318 314 309 304 300 298 298 297 295 293 291 287 287 290 290 286 278 273 268 262 258 254 251 246 241 238 237 237 238 239 241
124 177 213 200 115 88 104 161 2 46 205 275 283 234 286 328 283 316 358 274 267 198 177 174 171 180 197 210 213 212 217 222 227 230 233 237 232 228 224 218 214 210 207 210 228 347 360 0 354 351 348 346 346 345 344 346 345 344 342 341 341 341 339 333 325 319 315 312 308 304 300 297 296 297 295 292 290 287 286 288 290 288 280 274 268 264 260 256 253 250 245 242 241 240 238 240 242
123 176 183 122 127 154 74 129 160 319 233 284 307 279 264 215 227 269 240 220 226 211 184 180 189 198 206 212 215 218 222 228 232 234 239 241 234 229 224 219 216 210 207 212 226 310 348 353 348 344 341 338 338 337 337 339 341 340 338 337 336 337 337 334 327 320 314 310 307 306 303 299 296 295 292 290 288 287 286 286 288 289 284 276 271 266 263 258 254 251 248 245 244 243 240 239 240
12 87 87 58 144 161 152 144 159 176 203 256 303 321 278 232 219 205 212 216 205 193 193 199 203 205 206 208 211 215 218 223 226 227 230 231 230 228 223 217 211 205 205 213 230 297 338 344 341 336 332 330 331 332 332 334 336 336 335 334 334 334 334 333 328 322 315 309 307 306 304 301 297 293 289 287 286 285 285 286 287 289 286 279 272 267 264 260 256 253 250 246 243 241 239 238 239
355 69 215 287 81 119 158 145 126 142 161 184 226 292 268 250 215 193 214 219 201 194 199 206 209 208 208 209 210 212 215 220 223 223 226 228 228 227 223 216 209 203 208 217 243 302 331 334 330 328 325 325 327 329 330 330 331 331 331 332 331 331 332 331 328 324 316 310 309 307 305 303 299 294 291 288 285 283 284 285 286 286 286 280 272 268 265 260 255 254 252 248 244 241 238 238 238
167 169 216 191 148 131 149 264 295 123 151 170 168 241 268 258 208 204 225 222 212 210 207 210 213 208 209 212 212 212 214 218 220 222 224 225 225 223 218 212 205 205 213 223 248 292 315 319 320 322 321 322 325 327 328 327 327 327 328 329 329 329 329 328 327 325 318 312 308 308 309 306 301 299 296 291 286 285 285 285 284 283 282 278 271 267 266 261 255 253 251 248 245 242 240 239 238